Springfield, IL

3:41 AM CDT on April 25, 2017 (GMT -0500)
Capital

Weather History for KSPI - July, 2012

Change the Weather History Date:

Sunday, July 8, 2012

  Actual Average Record
Temperature  
Mean Temperature 79 °F 76 °F  
Max Temperature 88 °F 87 °F 103 °F (1936)
Min Temperature 69 °F 66 °F 53 °F (1954)
Degree Days  
Heating Degree Days 0 0  
Month to date heating degree days 0  
Since 1 June heating degree days 15  
Since 1 July heating degree days 0  
Cooling Degree Days 14 11  
Month to date cooling degree days 163 88  
Year to date cooling degree days 677 432  
Since 1 June cooling degree days 420 328  
Growing Degree Days 30 (Base 50)    
Moisture  
Dew Point 68 °F    
Average Humidity 66    
Maximum Humidity 79    
Minimum Humidity 53    
Precipitation  
Precipitation 0.13 in 0.13 in 2.13 in (2015)
Month to date precipitation 0.15 1.04  
Year to date precipitation 14.60 19.51  
Snow  
Snow 0.00 in 0.00 in 0.00 in ()
Month to date snowfall 0.0 0.0  
Since 1 June snowfall 0.0 0.0  
Since 1 July snowfall 0.0 0.0  
Snow Depth 0.00 in    
Sea Level Pressure  
Sea Level Pressure 29.99 in    
Wind  
Wind Speed 10 mph (ENE)    
Max Wind Speed 18 mph    
Max Gust Speed 23 mph    
Visibility 10 miles    
Events Rain , Thunderstorm    
T = Trace of Precipitation, MM = Missing Value Source: NWS Daily Summary

Daily Weather History Graph

Daily Weather History Graph

Search for Another Location

Airport or City:

Trip Planner

Search our weather history database for the weather conditions in past years. The results will help you decide how hot, cold, wet, or windy it might be!

Date:

Astronomy

Jul. 08, 2012 Rise Set
Actual Time 5:38 AM CDT 8:29 PM CDT
Civil Twilight 5:06 AM CDT 9:01 PM CDT
Nautical Twilight 4:25 AM CDT 9:41 PM CDT
Astronomical Twilight 3:39 AM CDT 10:28 PM CDT
Moon 11:17 PM CDT (7/8) 11:04 AM CDT (7/8)
Length of Visible Light 15h 55m
Length of Day
14h 50m
Waning Gibbous, 73% of the Moon is Illuminated
Jul 8
Waning Gibbous
Jul 10
Last Quarter
Jul 18
New
Jul 26
First Quarter
Aug 1
Full

Hourly Weather History & Observations

Time (CDT) Temp. Heat Index Dew Point Humidity Pressure Visibility Wind Dir Wind Speed Gust Speed Precip Events Conditions
12:52 AM 81.0 °F 85.2 °F 72.0 °F 74% 29.96 in 10.0 mi South 8.1 mph - N/A   Clear
1:52 AM 80.1 °F 84.2 °F 73.0 °F 79% 29.94 in 10.0 mi NNE 9.2 mph - N/A   Clear
2:52 AM 77.0 °F - 69.1 °F 76% 29.96 in 10.0 mi ENE 6.9 mph - N/A   Clear
3:52 AM 73.9 °F - 66.9 °F 79% 29.96 in 10.0 mi ENE 6.9 mph - N/A   Clear
4:52 AM 73.9 °F - 66.9 °F 79% 29.98 in 10.0 mi NE 10.4 mph - N/A   Clear
5:52 AM 73.0 °F - 66.0 °F 79% 29.99 in 10.0 mi NNE 8.1 mph - N/A   Clear
6:52 AM 73.9 °F - 66.0 °F 76% 29.99 in 10.0 mi NE 8.1 mph - N/A   Clear
7:52 AM 77.0 °F - 66.0 °F 69% 30.01 in 10.0 mi NE 8.1 mph - N/A   Scattered Clouds
8:52 AM 80.1 °F 82.3 °F 66.9 °F 64% 29.99 in 10.0 mi NE 12.7 mph - N/A   Mostly Cloudy
9:52 AM 84.0 °F 87.8 °F 69.1 °F 61% 29.99 in 10.0 mi NE 10.4 mph - N/A   Clear
10:52 AM 87.1 °F 92.0 °F 70.0 °F 57% 30.00 in 10.0 mi NNE 13.8 mph - N/A   Clear
11:52 AM 86.0 °F 91.5 °F 71.1 °F 61% 30.01 in 10.0 mi NE 12.7 mph - 0.00 in   Partly Cloudy
12:52 PM 82.9 °F 88.0 °F 72.0 °F 69% 30.01 in 10.0 mi NNE 8.1 mph - N/A   Overcast
1:52 PM 77.0 °F - 73.0 °F 88% 30.03 in 6.0 mi ESE 8.1 mph - 0.04 in Rain , Thunderstorm Light Thunderstorms and Rain
2:52 PM 77.0 °F - 73.0 °F 88% 30.00 in 10.0 mi ENE 8.1 mph - 0.09 in Rain Light Rain
3:52 PM 82.0 °F 87.9 °F 73.9 °F 76% 29.97 in 10.0 mi NE 11.5 mph - 0.00 in   Partly Cloudy
4:52 PM 84.9 °F 90.7 °F 72.0 °F 65% 29.96 in 10.0 mi NE 15.0 mph 23.0 mph N/A   Partly Cloudy
5:52 PM 84.9 °F 89.4 °F 70.0 °F 61% 29.99 in 10.0 mi ENE 15.0 mph - N/A   Partly Cloudy
6:52 PM 82.9 °F 86.5 °F 69.1 °F 63% 29.98 in 10.0 mi ENE 12.7 mph - N/A   Partly Cloudy
7:52 PM 81.0 °F 83.8 °F 68.0 °F 65% 30.00 in 10.0 mi East 12.7 mph - N/A   Clear
8:52 PM 79.0 °F - 63.0 °F 58% 30.00 in 10.0 mi East 9.2 mph - N/A   Clear
9:52 PM 75.0 °F - 62.1 °F 64% 30.01 in 10.0 mi ENE 4.6 mph - N/A   Clear
10:52 PM 73.9 °F - 63.0 °F 68% 30.04 in 10.0 mi ENE 5.8 mph - N/A   Overcast
11:52 PM 73.9 °F - 55.9 °F 53% 30.04 in 10.0 mi ENE 8.1 mph - N/A   Clear